QPF
0.02 0.02 0.01 0.01 0.02 0.02 0.03 0.03 0.04 0.05 0.04 0.03 0.03 0.04 0.04 0.04 0.04 0.03 0.03 0.02 0.02 0.02 0.02 0.02 0.02 0.02 0.01 0.01 0.01 0.01 0.01 0.02 0.02 0.02 0.02 0.02 0.03 0.03 0.03 0.04 0.04 0.03 0.02
0.01 0.02 0.01 0.01 0.01 0.01 0.02 0.02 0.03 0.04 0.04 0.03 0.02 0.02 0.02 0.03 0.03 0.02 0.02 0.02 0.02 0.02 0.01 0.01 0.01 0.01 0.01 0.01 0.01 0.01 0.01 0.01 0.02 0.02 0.01 0.02 0.02 0.02 0.03 0.03 0.04 0.05 0.04
0.01 0.02 0.01 0.01 0.01 0.01 0.01 0.02 0.02 0.03 0.05 0.04 0.03 0.02 0.02 0.02 0.02 0.02 0.02 0.02 0.02 0.01 0.01 0.01 0.01 0.01 0.01 0.02 0.02 0.02 0.01 0.01 0.01 0.01 0.01 0.02 0.02 0.03 0.03 0.03 0.04 0.06 0.05
0.01 0.02 0.01 0.01 0.00 0.01 0.01 0.01 0.01 0.02 0.03 0.05 0.04 0.04 0.03 0.03 0.03 0.02 0.02 0.02 0.02 0.02 0.02 0.02 0.01 0.01 0.01 0.02 0.02 0.02 0.02 0.02 0.02 0.02 0.01 0.01 0.02 0.03 0.03 0.03 0.04 0.06 0.06
0.01 0.02 0.02 0.01 0.01 0.01 0.01 0.01 0.01 0.01 0.02 0.03 0.05 0.04 0.03 0.04 0.04 0.04 0.03 0.03 0.02 0.02 0.02 0.02 0.02 0.02 0.02 0.02 0.03 0.03 0.03 0.03 0.02 0.02 0.02 0.01 0.02 0.02 0.02 0.02 0.03 0.05 0.06
0.02 0.02 0.02 0.01 0.01 0.01 0.01 0.01 0.01 0.01 0.01 0.02 0.03 0.04 0.04 0.03 0.03 0.04 0.04 0.04 0.03 0.02 0.02 0.02 0.02 0.02 0.02 0.02 0.03 0.03 0.03 0.04 0.03 0.03 0.02 0.02 0.01 0.02 0.02 0.02 0.03 0.04 0.05
0.02 0.02 0.02 0.02 0.01 0.01 0.01 0.01 0.01 0.01 0.01 0.01 0.02 0.02 0.03 0.04 0.03 0.02 0.02 0.02 0.02 0.02 0.02 0.02 0.02 0.02 0.02 0.02 0.02 0.02 0.02 0.03 0.03 0.03 0.03 0.02 0.01 0.02 0.02 0.03 0.04 0.05 0.05
0.01 0.02 0.02 0.02 0.02 0.01 0.01 0.01 0.01 0.01 0.01 0.02 0.02 0.02 0.02 0.03 0.03 0.02 0.02 0.02 0.01 0.01 0.02 0.02 0.01 0.01 0.02 0.02 0.03 0.03 0.02 0.02 0.02 0.02 0.03 0.02 0.02 0.02 0.03 0.03 0.04 0.05 0.04
0.01 0.02 0.02 0.02 0.03 0.02 0.01 0.01 0.01 0.01 0.01 0.02 0.02 0.02 0.03 0.03 0.03 0.03 0.02 0.02 0.02 0.01 0.01 0.01 0.01 0.01 0.02 0.02 0.03 0.03 0.02 0.02 0.02 0.03 0.03 0.03 0.03 0.03 0.04 0.04 0.05 0.05 0.05
0.02 0.02 0.02 0.02 0.02 0.02 0.02 0.02 0.01 0.02 0.02 0.02 0.02 0.03 0.03 0.03 0.03 0.03 0.03 0.02 0.02 0.01 0.01 0.01 0.02 0.02 0.02 0.02 0.03 0.03 0.02 0.02 0.01 0.02 0.02 0.02 0.03 0.03 0.03 0.03 0.04 0.04 0.05
0.02 0.02 0.02 0.02 0.02 0.02 0.02 0.02 0.02 0.02 0.03 0.03 0.03 0.03 0.03 0.03 0.03 0.03 0.03 0.02 0.02 0.02 0.01 0.01 0.02 0.02 0.02 0.02 0.03 0.03 0.02 0.02 0.01 0.01 0.02 0.02 0.02 0.03 0.03 0.03 0.04 0.04 0.05
0.02 0.03 0.03 0.02 0.02 0.02 0.02 0.02 0.02 0.03 0.03 0.03 0.03 0.04 0.04 0.03 0.04 0.04 0.03 0.03 0.02 0.02 0.02 0.02 0.02 0.02 0.02 0.02 0.02 0.03 0.03 0.02 0.02 0.02 0.02 0.02 0.02 0.02 0.02 0.02 0.03 0.03 0.04
0.02 0.02 0.03 0.03 0.02 0.02 0.02 0.02 0.02 0.02 0.02 0.02 0.03 0.03 0.03 0.03 0.03 0.05 0.04 0.03 0.03 0.03 0.02 0.02 0.02 0.02 0.02 0.03 0.03 0.02 0.02 0.02 0.02 0.02 0.02 0.02 0.02 0.02 0.02 0.02 0.02 0.03 0.03
0.01 0.02 0.02 0.03 0.03 0.03 0.02 0.02 0.02 0.02 0.02 0.02 0.02 0.02 0.02 0.02 0.02 0.03 0.04 0.03 0.03 0.03 0.03 0.02 0.02 0.02 0.03 0.03 0.03 0.03 0.03 0.02 0.02 0.02 0.01 0.01 0.02 0.02 0.02 0.02 0.02 0.02 0.03
0.01 0.01 0.02 0.02 0.03 0.03 0.03 0.03 0.03 0.03 0.03 0.03 0.03 0.02 0.03 0.03 0.03 0.03 0.03 0.03 0.03 0.03 0.03 0.03 0.03 0.03 0.03 0.03 0.03 0.03 0.03 0.02 0.02 0.02 0.02 0.02 0.02 0.02 0.02 0.02 0.02 0.02 0.03
0.01 0.01 0.01 0.01 0.02 0.02 0.02 0.02 0.02 0.03 0.03 0.03 0.03 0.03 0.03 0.04 0.04 0.04 0.04 0.05 0.05 0.04 0.05 0.04 0.03 0.03 0.03 0.02 0.02 0.02 0.02 0.02 0.02 0.02 0.02 0.02 0.02 0.02 0.02 0.02 0.02 0.02 0.03
0.01 0.01 0.01 0.01 0.01 0.02 0.02 0.02 0.02 0.02 0.02 0.03 0.03 0.03 0.04 0.04 0.04 0.04 0.04 0.04 0.05 0.04 0.05 0.04 0.03 0.03 0.02 0.02 0.02 0.01 0.01 0.01 0.01 0.02 0.02 0.02 0.02 0.02 0.02 0.02 0.02 0.02 0.02
0.01 0.01 0.01 0.01 0.01 0.01 0.01 0.02 0.02 0.02 0.02 0.02 0.02 0.03 0.03 0.03 0.03 0.03 0.03 0.03 0.03 0.03 0.03 0.03 0.02 0.02 0.02 0.02 0.02 0.01 0.01 0.01 0.01 0.02 0.02 0.02 0.02 0.02 0.03 0.02 0.03 0.03 0.03
0.01 0.01 0.01 0.01 0.01 0.01 0.01 0.01 0.02 0.02 0.02 0.02 0.02 0.02 0.02 0.03 0.03 0.03 0.03 0.03 0.02 0.02 0.02 0.02 0.02 0.02 0.02 0.02 0.02 0.02 0.02 0.02 0.02 0.02 0.03 0.03 0.03 0.03 0.03 0.03 0.03 0.03 0.03
0.01 0.01 0.01 0.01 0.01 0.01 0.01 0.01 0.02 0.02 0.02 0.02 0.02 0.02 0.02 0.02 0.03 0.03 0.02 0.02 0.02 0.02 0.02 0.02 0.02 0.02 0.02 0.02 0.02 0.02 0.03 0.03 0.03 0.03 0.03 0.03 0.03 0.04 0.04 0.04 0.04 0.04 0.04
0.01 0.01 0.01 0.01 0.01 0.01 0.01 0.01 0.02 0.02 0.02 0.02 0.02 0.03 0.03 0.03 0.02 0.02 0.02 0.02 0.02 0.02 0.02 0.02 0.02 0.02 0.02 0.02 0.02 0.02 0.02 0.02 0.03 0.03 0.04 0.04 0.03 0.04 0.04 0.04 0.04 0.04 0.04
0.01 0.01 0.01 0.01 0.01 0.01 0.01 0.01 0.02 0.02 0.02 0.02 0.02 0.03 0.04 0.03 0.03 0.03 0.02 0.02 0.02 0.02 0.02 0.02 0.02 0.02 0.02 0.02 0.02 0.02 0.02 0.02 0.02 0.02 0.03 0.03 0.03 0.03 0.03 0.03 0.04 0.04 0.03
0.01 0.01 0.01 0.01 0.01 0.01 0.01 0.01 0.02 0.02 0.02 0.02 0.02 0.03 0.03 0.03 0.03 0.03 0.02 0.02 0.02 0.02 0.02 0.02 0.02 0.02 0.02 0.02 0.02 0.02 0.02 0.02 0.02 0.02 0.03 0.03 0.03 0.03 0.03 0.03 0.04 0.04 0.04
0.01 0.01 0.01 0.01 0.01 0.01 0.01 0.01 0.01 0.01 0.01 0.01 0.02 0.02 0.02 0.02 0.02 0.02 0.02 0.02 0.02 0.02 0.02 0.01 0.02 0.02 0.01 0.01 0.01 0.02 0.02 0.02 0.02 0.02 0.03 0.03 0.03 0.03 0.03 0.03 0.03 0.04 0.04
0.01 0.01 0.01 0.01 0.01 0.01 0.01 0.01 0.01 0.01 0.01 0.01 0.01 0.01 0.01 0.01 0.02 0.01 0.01 0.01 0.01 0.01 0.01 0.01 0.01 0.01 0.01 0.01 0.01 0.01 0.02 0.02 0.02 0.02 0.03 0.03 0.03 0.03 0.03 0.03 0.03 0.03 0.03
0.01 0.01 0.01 0.01 0.01 0.01 0.01 0.01 0.01 0.01 0.01 0.01 0.01 0.01 0.01 0.01 0.01 0.01 0.01 0.01 0.01 0.01 0.01 0.01 0.01 0.01 0.01 0.01 0.01 0.01 0.02 0.02 0.02 0.03 0.03 0.03 0.03 0.03 0.02 0.02 0.02 0.03 0.03
MSLP
1014.23 1014.86 1015.63 1016.51 1017.45 1018.41 1019.36 1020.27 1021.12 1021.93 1022.70 1023.44 1024.16 1024.88 1025.59 1026.27 1026.92 1027.52 1028.05 1028.49 1028.87 1029.18 1029.46 1029.74 1030.04 1030.40 1030.82 1031.31 1031.86 1032.43 1033.01 1033.55 1034.01 1034.38 1034.63 1034.75 1034.75 1034.65 1034.47 1034.23 1033.96 1033.67 1033.37
1014.95 1015.57 1016.32 1017.17 1018.09 1019.03 1019.97 1020.88 1021.74 1022.55 1023.30 1024.03 1024.73 1025.41 1026.09 1026.76 1027.40 1028.02 1028.58 1029.09 1029.54 1029.94 1030.29 1030.63 1030.97 1031.33 1031.72 1032.16 1032.63 1033.12 1033.59 1034.04 1034.42 1034.71 1034.90 1034.97 1034.94 1034.81 1034.60 1034.34 1034.04 1033.72 1033.39
1015.63 1016.27 1017.02 1017.86 1018.76 1019.70 1020.64 1021.54 1022.40 1023.20 1023.94 1024.63 1025.29 1025.93 1026.56 1027.19 1027.81 1028.42 1029.01 1029.57 1030.09 1030.57 1031.01 1031.43 1031.82 1032.20 1032.60 1033.00 1033.40 1033.81 1034.20 1034.55 1034.84 1035.05 1035.18 1035.20 1035.13 1034.97 1034.74 1034.44 1034.11 1033.76 1033.40
1016.22 1016.90 1017.67 1018.51 1019.42 1020.36 1021.29 1022.20 1023.06 1023.86 1024.59 1025.25 1025.88 1026.46 1027.04 1027.62 1028.20 1028.80 1029.40 1029.99 1030.56 1031.11 1031.63 1032.12 1032.56 1032.98 1033.38 1033.75 1034.11 1034.45 1034.75 1035.02 1035.23 1035.38 1035.44 1035.42 1035.32 1035.13 1034.88 1034.57 1034.21 1033.83 1033.42
1016.71 1017.43 1018.22 1019.08 1020.00 1020.94 1021.89 1022.82 1023.69 1024.49 1025.22 1025.88 1026.47 1027.02 1027.55 1028.07 1028.62 1029.18 1029.77 1030.38 1030.99 1031.59 1032.16 1032.70 1033.19 1033.64 1034.04 1034.39 1034.71 1034.98 1035.22 1035.42 1035.56 1035.65 1035.68 1035.63 1035.51 1035.31 1035.05 1034.72 1034.35 1033.94 1033.50
1017.09 1017.85 1018.66 1019.54 1020.46 1021.42 1022.39 1023.34 1024.24 1025.07 1025.81 1026.48 1027.06 1027.59 1028.08 1028.57 1029.07 1029.61 1030.18 1030.78 1031.40 1032.02 1032.63 1033.20 1033.71 1034.17 1034.56 1034.89 1035.17 1035.39 1035.58 1035.72 1035.82 1035.88 1035.88 1035.82 1035.70 1035.51 1035.25 1034.93 1034.54 1034.12 1033.65
1017.39 1018.17 1019.00 1019.88 1020.81 1021.79 1022.77 1023.75 1024.69 1025.55 1026.34 1027.02 1027.62 1028.15 1028.63 1029.09 1029.57 1030.07 1030.61 1031.20 1031.81 1032.44 1033.04 1033.62 1034.14 1034.58 1034.96 1035.26 1035.50 1035.69 1035.84 1035.95 1036.02 1036.07 1036.07 1036.02 1035.91 1035.73 1035.49 1035.17 1034.79 1034.35 1033.86
1017.65 1018.44 1019.27 1020.14 1021.08 1022.05 1023.06 1024.06 1025.04 1025.95 1026.77 1027.50 1028.12 1028.67 1029.15 1029.61 1030.06 1030.55 1031.07 1031.63 1032.22 1032.83 1033.42 1033.98 1034.48 1034.91 1035.26 1035.54 1035.75 1035.91 1036.03 1036.13 1036.20 1036.24 1036.26 1036.23 1036.15 1036.00 1035.77 1035.46 1035.08 1034.62 1034.12
1017.90 1018.70 1019.52 1020.38 1021.30 1022.28 1023.29 1024.31 1025.31 1026.26 1027.12 1027.88 1028.54 1029.11 1029.61 1030.07 1030.52 1030.99 1031.49 1032.03 1032.60 1033.19 1033.76 1034.30 1034.77 1035.18 1035.51 1035.76 1035.95 1036.10 1036.21 1036.31 1036.39 1036.45 1036.49 1036.49 1036.43 1036.30 1036.09 1035.78 1035.39 1034.92 1034.39
1018.18 1018.98 1019.79 1020.64 1021.55 1022.51 1023.52 1024.54 1025.55 1026.51 1027.40 1028.18 1028.86 1029.45 1029.96 1030.43 1030.89 1031.35 1031.84 1032.37 1032.93 1033.50 1034.05 1034.57 1035.03 1035.42 1035.74 1035.98 1036.16 1036.31 1036.43 1036.54 1036.64 1036.72 1036.79 1036.81 1036.77 1036.65 1036.43 1036.12 1035.71 1035.21 1034.65
1018.50 1019.30 1020.11 1020.95 1021.84 1022.78 1023.77 1024.78 1025.77 1026.73 1027.61 1028.40 1029.08 1029.68 1030.20 1030.67 1031.13 1031.60 1032.10 1032.63 1033.19 1033.76 1034.31 1034.83 1035.28 1035.67 1035.98 1036.22 1036.42 1036.57 1036.71 1036.84 1036.96 1037.07 1037.15 1037.19 1037.15 1037.03 1036.80 1036.46 1036.02 1035.49 1034.89
1018.83 1019.65 1020.46 1021.30 1022.18 1023.10 1024.06 1025.04 1026.00 1026.92 1027.77 1028.54 1029.21 1029.79 1030.31 1030.79 1031.26 1031.74 1032.26 1032.81 1033.38 1033.97 1034.53 1035.06 1035.53 1035.93 1036.25 1036.51 1036.72 1036.90 1037.06 1037.21 1037.35 1037.48 1037.58 1037.62 1037.58 1037.44 1037.18 1036.80 1036.32 1035.75 1035.11
1019.14 1019.98 1020.82 1021.67 1022.54 1023.44 1024.37 1025.31 1026.22 1027.09 1027.90 1028.62 1029.25 1029.81 1030.32 1030.80 1031.29 1031.79 1032.34 1032.92 1033.53 1034.14 1034.74 1035.29 1035.79 1036.21 1036.56 1036.84 1037.07 1037.27 1037.46 1037.63 1037.79 1037.94 1038.04 1038.07 1038.02 1037.85 1037.56 1037.14 1036.62 1036.00 1035.32
1019.38 1020.26 1021.12 1021.99 1022.86 1023.76 1024.66 1025.56 1026.42 1027.24 1027.98 1028.65 1029.25 1029.78 1030.28 1030.77 1031.27 1031.80 1032.38 1033.01 1033.66 1034.31 1034.95 1035.53 1036.06 1036.51 1036.88 1037.18 1037.44 1037.66 1037.86 1038.06 1038.23 1038.39 1038.49 1038.52 1038.45 1038.26 1037.94 1037.49 1036.92 1036.27 1035.56
1019.52 1020.43 1021.32 1022.21 1023.10 1024.00 1024.89 1025.75 1026.58 1027.35 1028.05 1028.67 1029.24 1029.75 1030.24 1030.74 1031.27 1031.84 1032.46 1033.12 1033.82 1034.51 1035.18 1035.80 1036.35 1036.81 1037.20 1037.52 1037.79 1038.02 1038.24 1038.44 1038.63 1038.79 1038.90 1038.93 1038.85 1038.65 1038.31 1037.84 1037.26 1036.58 1035.86
1019.55 1020.47 1021.39 1022.30 1023.22 1024.13 1025.02 1025.88 1026.69 1027.43 1028.11 1028.71 1029.26 1029.77 1030.27 1030.79 1031.35 1031.95 1032.62 1033.32 1034.05 1034.77 1035.46 1036.09 1036.64 1037.11 1037.50 1037.82 1038.09 1038.33 1038.55 1038.76 1038.95 1039.12 1039.24 1039.27 1039.21 1039.01 1038.68 1038.21 1037.63 1036.96 1036.24
1019.48 1020.41 1021.35 1022.29 1023.24 1024.18 1025.09 1025.96 1026.77 1027.52 1028.19 1028.80 1029.36 1029.89 1030.41 1030.97 1031.56 1032.20 1032.90 1033.63 1034.37 1035.10 1035.78 1036.40 1036.94 1037.39 1037.76 1038.06 1038.32 1038.55 1038.76 1038.97 1039.18 1039.36 1039.49 1039.55 1039.50 1039.34 1039.03 1038.59 1038.04 1037.39 1036.69
1019.41 1020.32 1021.27 1022.23 1023.21 1024.18 1025.13 1026.03 1026.87 1027.64 1028.34 1028.98 1029.57 1030.13 1030.70 1031.29 1031.92 1032.59 1033.31 1034.04 1034.78 1035.49 1036.15 1036.74 1037.23 1037.65 1037.98 1038.24 1038.47 1038.68 1038.89 1039.10 1039.31 1039.50 1039.66 1039.75 1039.74 1039.61 1039.35 1038.96 1038.46 1037.85 1037.19
1019.40 1020.30 1021.24 1022.22 1023.23 1024.23 1025.21 1026.15 1027.03 1027.84 1028.58 1029.27 1029.90 1030.52 1031.13 1031.76 1032.42 1033.11 1033.82 1034.55 1035.26 1035.93 1036.54 1037.07 1037.51 1037.86 1038.14 1038.37 1038.56 1038.75 1038.94 1039.14 1039.36 1039.57 1039.75 1039.87 1039.90 1039.83 1039.62 1039.29 1038.84 1038.29 1037.68
1019.58 1020.44 1021.37 1022.36 1023.38 1024.40 1025.41 1026.39 1027.31 1028.16 1028.95 1029.68 1030.37 1031.03 1031.68 1032.34 1033.02 1033.71 1034.41 1035.10 1035.76 1036.37 1036.91 1037.37 1037.74 1038.03 1038.26 1038.44 1038.60 1038.75 1038.93 1039.13 1039.34 1039.56 1039.76 1039.91 1039.98 1039.95 1039.80 1039.53 1039.14 1038.66 1038.10
1020.02 1020.84 1021.75 1022.73 1023.74 1024.77 1025.80 1026.79 1027.73 1028.61 1029.44 1030.21 1030.93 1031.63 1032.31 1032.98 1033.65 1034.33 1034.99 1035.63 1036.23 1036.77 1037.24 1037.62 1037.93 1038.16 1038.33 1038.46 1038.59 1038.72 1038.87 1039.06 1039.27 1039.49 1039.69 1039.86 1039.96 1039.96 1039.86 1039.64 1039.32 1038.90 1038.40
1020.77 1021.55 1022.43 1023.37 1024.36 1025.37 1026.38 1027.36 1028.30 1029.19 1030.03 1030.82 1031.55 1032.26 1032.94 1033.61 1034.27 1034.90 1035.52 1036.10 1036.63 1037.09 1037.49 1037.80 1038.04 1038.21 1038.34 1038.44 1038.53 1038.64 1038.77 1038.94 1039.13 1039.34 1039.53 1039.70 1039.81 1039.83 1039.77 1039.60 1039.33 1038.97 1038.54
1021.84 1022.58 1023.41 1024.30 1025.24 1026.20 1027.16 1028.10 1029.01 1029.88 1030.69 1031.46 1032.19 1032.88 1033.55 1034.18 1034.80 1035.39 1035.94 1036.46 1036.91 1037.31 1037.63 1037.88 1038.07 1038.20 1038.29 1038.36 1038.42 1038.50 1038.61 1038.74 1038.90 1039.08 1039.25 1039.40 1039.50 1039.54 1039.50 1039.37 1039.15 1038.86 1038.51
1023.18 1023.88 1024.64 1025.47 1026.33 1027.22 1028.10 1028.97 1029.81 1030.62 1031.39 1032.12 1032.80 1033.46 1034.08 1034.67 1035.23 1035.76 1036.25 1036.69 1037.07 1037.40 1037.66 1037.86 1038.00 1038.09 1038.15 1038.19 1038.22 1038.27 1038.34 1038.44 1038.56 1038.69 1038.83 1038.95 1039.04 1039.07 1039.05 1038.96 1038.81 1038.59 1038.32
1024.73 1025.37 1026.06 1026.80 1027.57 1028.35 1029.14 1029.91 1030.67 1031.40 1032.09 1032.75 1033.38 1033.97 1034.53 1035.06 1035.56 1036.02 1036.43 1036.80 1037.12 1037.38 1037.59 1037.74 1037.83 1037.89 1037.91 1037.91 1037.91 1037.92 1037.94 1037.99 1038.06 1038.14 1038.23 1038.32 1038.39 1038.43 1038.43 1038.39 1038.30 1038.17 1037.99
1026.41 1026.98 1027.59 1028.23 1028.89 1029.56 1030.23 1030.90 1031.55 1032.19 1032.79 1033.37 1033.92 1034.44 1034.93 1035.38 1035.80 1036.19 1036.53 1036.82 1037.07 1037.27 1037.41 1037.50 1037.55 1037.56 1037.54 1037.50 1037.45 1037.41 1037.37 1037.36 1037.37 1037.40 1037.44 1037.50 1037.56 1037.61 1037.65 1037.67 1037.66 1037.63 1037.56
Thickness
5439 5438 5438 5438 5437 5437 5437 5438 5438 5438 5438 5437 5437 5436 5435 5434 5434 5434 5434 5433 5433 5432 5431 5430 5430 5429 5427 5426 5425 5424 5422 5420 5420 5420 5418 5417 5415 5414 5413 5412 5412 5412 5413
5427 5427 5426 5426 5426 5425 5425 5425 5425 5425 5425 5425 5424 5423 5422 5422 5422 5422 5421 5421 5420 5420 5419 5418 5417 5417 5415 5414 5413 5411 5410 5408 5406 5405 5404 5402 5401 5400 5400 5399 5400 5400 5401
5415 5415 5415 5414 5413 5413 5412 5412 5411 5412 5412 5411 5411 5410 5410 5409 5409 5409 5409 5408 5408 5407 5406 5406 5405 5404 5403 5402 5400 5399 5397 5396 5394 5392 5391 5389 5388 5387 5386 5387 5388 5388 5389
5404 5403 5402 5402 5401 5401 5400 5399 5398 5398 5398 5397 5398 5398 5397 5397 5396 5396 5396 5396 5395 5394 5394 5393 5393 5392 5391 5390 5389 5387 5385 5383 5381 5379 5378 5377 5375 5374 5373 5374 5375 5376 5377
5391 5391 5391 5390 5389 5388 5388 5387 5386 5385 5384 5384 5384 5384 5385 5385 5385 5384 5384 5383 5383 5382 5381 5380 5380 5380 5379 5378 5377 5375 5373 5370 5368 5366 5365 5364 5362 5360 5361 5362 5362 5363 5364
5378 5377 5377 5377 5376 5375 5374 5373 5373 5372 5371 5370 5371 5371 5371 5372 5372 5372 5371 5371 5371 5370 5369 5369 5368 5367 5366 5365 5364 5363 5361 5359 5358 5355 5354 5353 5352 5350 5349 5348 5348 5349 5352
5364 5364 5363 5362 5362 5361 5361 5359 5359 5358 5357 5357 5357 5358 5358 5359 5359 5359 5358 5358 5358 5357 5357 5356 5356 5355 5354 5353 5352 5350 5349 5347 5346 5345 5344 5343 5342 5340 5337 5336 5336 5337 5340
5351 5349 5348 5347 5347 5347 5346 5345 5345 5344 5343 5343 5344 5345 5345 5346 5346 5346 5345 5344 5344 5345 5344 5344 5343 5342 5341 5339 5339 5338 5337 5336 5335 5333 5333 5333 5331 5329 5326 5325 5324 5324 5326
5338 5337 5335 5334 5333 5333 5333 5332 5332 5331 5331 5331 5331 5331 5332 5333 5333 5332 5331 5331 5332 5332 5332 5331 5330 5329 5328 5327 5326 5325 5325 5324 5323 5322 5321 5321 5320 5318 5315 5312 5310 5309 5312
5325 5324 5322 5321 5320 5320 5320 5320 5319 5318 5318 5318 5318 5319 5319 5320 5320 5320 5319 5319 5319 5319 5319 5318 5317 5316 5315 5314 5313 5313 5313 5313 5311 5311 5310 5309 5307 5305 5303 5301 5299 5297 5298
5313 5311 5310 5309 5308 5307 5307 5306 5305 5305 5304 5305 5305 5306 5306 5307 5307 5307 5306 5306 5306 5306 5306 5306 5305 5303 5302 5302 5301 5301 5302 5301 5299 5298 5297 5296 5294 5293 5292 5290 5289 5287 5287
5300 5298 5297 5296 5295 5294 5293 5292 5291 5291 5291 5291 5291 5293 5293 5294 5294 5295 5294 5294 5293 5292 5293 5293 5292 5290 5289 5289 5288 5289 5288 5286 5285 5285 5284 5283 5282 5282 5281 5280 5278 5277 5277
5287 5285 5284 5283 5282 5281 5280 5279 5278 5277 5277 5278 5278 5279 5280 5281 5281 5281 5281 5280 5279 5279 5279 5279 5278 5277 5276 5275 5274 5274 5274 5272 5272 5272 5272 5272 5271 5270 5269 5268 5267 5266 5266
5274 5272 5271 5270 5270 5269 5268 5267 5265 5265 5264 5264 5264 5265 5266 5266 5267 5267 5266 5265 5265 5265 5264 5264 5263 5262 5262 5262 5261 5260 5260 5259 5259 5259 5259 5259 5258 5258 5257 5256 5255 5255 5255
5261 5260 5258 5257 5257 5256 5255 5254 5254 5254 5253 5252 5252 5252 5252 5253 5255 5255 5254 5254 5253 5252 5251 5249 5248 5248 5248 5248 5247 5247 5247 5246 5246 5246 5245 5245 5245 5245 5245 5244 5243 5242 5242
5250 5248 5246 5245 5244 5243 5242 5242 5242 5242 5243 5243 5242 5242 5242 5243 5243 5243 5243 5242 5242 5240 5237 5236 5236 5236 5236 5236 5236 5235 5235 5234 5234 5233 5233 5233 5233 5233 5233 5232 5231 5231 5232
5237 5235 5233 5232 5231 5230 5229 5229 5229 5230 5231 5231 5231 5231 5231 5232 5231 5231 5230 5230 5229 5227 5223 5223 5224 5225 5225 5225 5224 5224 5224 5223 5222 5221 5221 5221 5220 5220 5219 5219 5219 5219 5220
5226 5224 5222 5220 5219 5217 5216 5216 5216 5216 5216 5218 5219 5219 5220 5220 5219 5218 5217 5216 5214 5212 5211 5211 5212 5213 5214 5213 5214 5213 5213 5212 5211 5211 5210 5210 5209 5208 5207 5207 5208 5208 5209
5215 5213 5211 5209 5208 5206 5205 5204 5204 5204 5204 5205 5206 5207 5207 5207 5207 5205 5204 5201 5201 5201 5201 5201 5202 5203 5203 5203 5203 5203 5202 5202 5201 5200 5200 5200 5198 5197 5197 5197 5197 5198 5198
5204 5203 5200 5198 5197 5195 5194 5194 5193 5193 5193 5194 5194 5195 5195 5194 5193 5192 5191 5190 5190 5190 5190 5191 5191 5192 5192 5192 5192 5192 5192 5191 5191 5191 5190 5190 5189 5188 5187 5187 5188 5188 5189
5194 5193 5190 5188 5186 5185 5184 5183 5182 5182 5182 5182 5183 5184 5186 5185 5184 5182 5181 5181 5181 5180 5180 5181 5182 5182 5182 5182 5182 5182 5181 5182 5182 5182 5181 5181 5180 5179 5179 5179 5179 5179 5180
5183 5181 5179 5177 5176 5174 5173 5172 5172 5171 5171 5171 5172 5173 5176 5174 5173 5172 5171 5171 5171 5171 5171 5172 5172 5172 5172 5172 5172 5172 5172 5173 5173 5173 5173 5172 5171 5171 5170 5170 5171 5171 5171
5172 5170 5168 5166 5164 5163 5162 5161 5160 5160 5160 5160 5161 5161 5162 5162 5162 5161 5161 5162 5162 5162 5162 5163 5163 5164 5164 5164 5163 5163 5164 5164 5165 5164 5164 5164 5164 5164 5163 5163 5163 5163 5164
5160 5158 5156 5154 5153 5152 5151 5150 5149 5149 5149 5149 5149 5149 5149 5149 5149 5150 5151 5152 5152 5153 5153 5154 5155 5156 5156 5156 5156 5156 5156 5157 5157 5157 5157 5157 5157 5157 5157 5156 5156 5156 5157
5149 5147 5145 5143 5141 5140 5139 5138 5138 5138 5137 5137 5137 5138 5138 5138 5139 5139 5140 5141 5142 5143 5145 5146 5146 5147 5148 5149 5149 5150 5150 5151 5150 5151 5151 5151 5151 5151 5150 5150 5151 5151 5151
5138 5136 5134 5132 5130 5129 5127 5127 5126 5126 5126 5126 5126 5126 5127 5127 5128 5129 5131 5131 5133 5134 5135 5137 5138 5139 5140 5141 5143 5144 5145 5146 5146 5146 5146 5146 5146 5146 5145 5145 5145 5145 5144